Погода в Селиверстово

Россия / Тверская область     56°33′24″N   36°24′11″E
темп.,
°C
ветер,
м/с
пор.,
м/с
влажн.,
%
обл.,
%
осадки,
мм/ч
давл.,
гПа
погр.,
м
28 января, чт
чт2800:00−4ююз259598 0.0 1007124
03:00−5ююз229596 0.0 100752
06:00−5ю1195100 0.0 100721
09:00−4в2494100 0.0 1006130
12:00−2всв2495100 0.7 1005252
15:00−2всв3696100 2.4 1004347
18:00−2всв2498100 0.9 1003179
21:00+2юв3899100 1.3 1001292
29 января, пт
пт2900:00+2юв41098100 0.4 1000406
03:000юв51097100 0.7 998442
06:00+1юв41196100 0.3 996526
09:00+2юв51298100 0.4 995683
12:00+1юв51187100 0.4 9941106
15:00−1ююв6117782 0.4 9931191
18:00−2юв5129199 0.1 992874
21:00−2ююв4119199 0.1 991643
30 января, сб
сб3000:00−3ю3892100 0.1 991443
03:00−5ю3791100 0.1 992497
06:00−5ю389199 0.1 991487
09:00−6ю499298 0.2 991475
12:00−5ююз488898 0.1 992630
15:00−4ююз599099 0.4 993761
18:00−5ююз51089100 0.1 993693
21:00−6ююз5986100 0.2 995679
31 января, вс
вс3100:00−6ю3890100 0.0 994405
03:00−6ююв3693100 0.0 994273
06:00−6вюв2496100 0.1 992182
09:00−6всв1396100 0.1 991104
12:00−4с2494100 0.6 990257
15:00−4сз3693100 0.9 989440
18:00−6зсз3892100 0.1 992436
21:00−6з41189100 0.1 995549
1 февраля, пн
пн100:00−6зюз4129362 0.1 998566
03:00−6зюз5129082 0.1 1001627
06:00−7зюз41190100 0.0 1003617
09:00−7юз4119293 0.1 1005419
12:00−6юз498787 0.0 1007423
15:00−5ююз378773 0.0 1008421
18:00−8ю259568 0.0 1007135
21:00−10юв229574 0.0 100627